THORAD DELTA 1 DEB, 8154

Orbit data source: Space-Track

THORAD DELTA 1 DEB, 8154 is space debris in SSO originally from a launch on Fri, 15 Nov 1974 UTC launched from the Air Force Western Test Range (AFWTR). Debris objects in space refer to the collection of defunct objects orbiting the Earth. Examples of debris include non-operational satellites, rocket bodies, and fragments generated from explosions, collisions, or faulty payload assembly.

Loading next visibility...
Identifier
8154, 1974-089U
Orbit
SSO
Country
Flag of USUS
Related business
Manufacturer
Unknown
Mission
Spacecraft
Bus & Motor
Unknown
Mass
Unknown
Launch date (UTC)
1974-11-15 (52 years ago)
Launch vehicle
Unknown
Launch site
Air Force Western Test Range (AFWTR)
Object type
Payload
Rocket body
Debris
Shape & HBR
Unknown shape, 0.2 m
Radar Cross Section
Medium (>0.1 m² and <1 m²)

Expand to show TLE details & history
Last TLE update: 17 hours ago

TLE from 17 hours ago
0 THORAD DELTA 1 DEB
1 08154U 74089U   26207.48545034 -.00000022  00000-0  15917-3 0  9997
2 08154 102.0701 215.3383 0005218 236.1491 280.5462 12.52433932363067
Epoch: 2026-07-26T11:39Z
TLE epoch observation values (Epoch: 2026-07-26T11:39:02.909Z)
Latitude
22.83641°
Longitude
-78.4656°
Altitude
1,456.041 km
Speed
7.137 km/s
True Right ascension
02h 41m 55s
True Declination
22° 43' 29"
Sunlit
Object was in daylight at epoch
Visualization orbit readout
Latitude
Unknown
Longitude
Unknown
Altitude
Unknown
Speed
Unknown
Apparent Right ascension
Unknown
Apparent Declination
Unknown
Sunlit
N/A
Visualization observer readout
Local Sidereal Time
17:43:16
Azimuth
Unknown
Elevation
Unknown
Doppler factor
Unknown
Orbital elements
Apogee altitude
1,455.979 km
Perigee altitude
1,447.808 km
Semi-major axis
7,830.031 km
Eccentricity
0.00052
Inclination
102.0701°
RAAN
215.3383°
Arg. of periapsis
236.1491°
True anomaly
280.48741°
Mean anomaly
280.5462°
Eccentric anomaly
280.51681°
Mean motion
3.13255 °/min
Orbital period
114.92 mins
BSTAR
0.00015917
Loading maneuver chart data...
Computing Atmospheric mass density...

Documentation

Showing up to 5 results
|